Fond du Lac, WI

3:57 AM CDT on May 28, 2017 (GMT -0500)
Fond du Lac County

Weather History for KFLD - October, 2013

Change the Weather History Date:

Saturday, October 26, 2013

  Actual Average Record
Temperature  
Mean Temperature 44 °F -  
Max Temperature 52 °F 55 °F 75 °F (1952)
Min Temperature 39 °F 39 °F 20 °F (1962)
Degree Days  
Heating Degree Days 22    
Moisture  
Dew Point 28 °F    
Average Humidity 51    
Maximum Humidity 68    
Minimum Humidity 39    
Precipitation  
Precipitation 0.00 in - - ()
Sea Level Pressure  
Sea Level Pressure 29.89 in    
Wind  
Wind Speed 14 mph (WNW)    
Max Wind Speed 22 mph    
Max Gust Speed 34 mph    
Visibility 10 miles    
Events      
Averages and records for this station are not official NWS values.
T = Trace of Precipitation, MM = Missing Value Source: NWS Daily Summary

Daily Weather History Graph

Daily Weather History Graph

Search for Another Location

Airport or City:

Trip Planner

Search our weather history database for the weather conditions in past years. The results will help you decide how hot, cold, wet, or windy it might be!

Date:

Astronomy

Oct. 26, 2013 Rise Set
Actual Time 7:22 AM CDT 5:52 PM CDT
Civil Twilight 6:52 AM CDT 6:22 PM CDT
Nautical Twilight 6:19 AM CDT 6:55 PM CDT
Astronomical Twilight 5:45 AM CDT 7:29 PM CDT
Moon No Moon Rise 1:40 PM CDT (10/26)
Length of Visible Light 11h 29m
Length of Day
10h 30m
Waning Gibbous, 53% of the Moon is Illuminated
Oct 26
Waning Gibbous
Oct 26
Last Quarter
Nov 3
New
Nov 9
First Quarter
Nov 17
Full

Hourly Weather History & Observations

Time (CDT) Temp. Windchill Dew Point Humidity Pressure Visibility Wind Dir Wind Speed Gust Speed Precip Events Conditions
12:53 AM 48.9 °F - 25.0 °F 39% 29.80 in 10.0 mi SW 21.9 mph 34.5 mph N/A   Overcast
1:53 AM 48.0 °F - 26.1 °F 42% 29.77 in 10.0 mi SW 13.8 mph 25.3 mph N/A   Overcast
2:53 AM 48.0 °F - 26.1 °F 42% 29.75 in 10.0 mi SW 17.3 mph 25.3 mph N/A   Overcast
3:53 AM 46.0 °F 40.6 °F 26.1 °F 46% 29.73 in 10.0 mi SW 11.5 mph 20.7 mph N/A   Clear
4:53 AM 44.1 °F 38.1 °F 27.0 °F 51% 29.73 in 10.0 mi SW 11.5 mph 19.6 mph N/A   Mostly Cloudy
5:53 AM 43.0 °F 37.2 °F 28.0 °F 56% 29.74 in 10.0 mi SW 10.4 mph - N/A   Mostly Cloudy
6:53 AM 41.0 °F 35.8 °F 28.9 °F 62% 29.75 in 10.0 mi SW 8.1 mph - N/A   Partly Cloudy
7:53 AM 39.9 °F 35.8 °F 30.0 °F 68% 29.78 in 10.0 mi WSW 5.8 mph - N/A   Mostly Cloudy
8:53 AM 46.0 °F 39.6 °F 34.0 °F 63% 29.79 in 10.0 mi WNW 15.0 mph 20.7 mph N/A   Clear
9:53 AM 48.0 °F - 33.1 °F 56% 29.82 in 10.0 mi NW 16.1 mph 25.3 mph N/A   Overcast
10:53 AM 48.9 °F - 30.9 °F 50% 29.84 in 10.0 mi NW 18.4 mph 24.2 mph N/A   Mostly Cloudy
11:53 AM 48.9 °F - 28.9 °F 46% 29.87 in 10.0 mi NNW 21.9 mph 28.8 mph N/A   Scattered Clouds
12:53 PM 48.9 °F - 27.0 °F 43% 29.88 in 10.0 mi NNW 20.7 mph 29.9 mph N/A   Mostly Cloudy
1:53 PM 48.9 °F - 25.0 °F 39% 29.91 in 10.0 mi NW 18.4 mph 27.6 mph N/A   Mostly Cloudy
2:53 PM 48.0 °F - 26.1 °F 42% 29.93 in 10.0 mi NW 16.1 mph 27.6 mph N/A   Mostly Cloudy
3:53 PM 48.0 °F - 27.0 °F 44% 29.96 in 10.0 mi NW 19.6 mph 24.2 mph N/A   Overcast
4:53 PM 46.9 °F - 28.9 °F 50% 29.99 in 10.0 mi NW 16.1 mph 23.0 mph N/A   Mostly Cloudy
5:53 PM 45.0 °F 40.6 °F 28.0 °F 52% 30.01 in 10.0 mi NW 8.1 mph - N/A   Overcast
6:53 PM 45.0 °F 39.3 °F 27.0 °F 49% 30.03 in 10.0 mi NW 11.5 mph - N/A   Overcast
7:53 PM 43.0 °F 39.5 °F 28.9 °F 58% 30.05 in 10.0 mi NW 5.8 mph - N/A   Overcast
8:53 PM 43.0 °F 39.5 °F 28.0 °F 56% 30.05 in 10.0 mi WNW 5.8 mph - N/A   Overcast
9:53 PM 42.1 °F 39.2 °F 28.9 °F 60% 30.06 in 10.0 mi WNW 4.6 mph - N/A   Overcast
10:53 PM 41.0 °F 39.0 °F 28.0 °F 60% 30.05 in 10.0 mi West 3.5 mph - N/A   Mostly Cloudy
11:53 PM 41.0 °F 39.0 °F 28.9 °F 62% 30.05 in 10.0 mi West 3.5 mph - N/A   Overcast